FENGYUN 1C DEB

Satellite information

Favourite Embed

Satellite Type and Status

DEBRISIN ORBIT

Key statistics

Satellite FENGYUN 1C DEB at a glance.

Uptime

9495

Days in orbit

Revolutions

≈ 14.2

Per day

Orbit

SSO

Sun Synchronous Orbit

Inclination

98.7

Latest

Satellite identification and parameters

Extended collection of information and parameters for FENGYUN 1C DEB.

Object identification

Identified? True

Debris? True

Object name: FENGYUN 1C DEB

International designator: 1999-025EYN

Object number (NORAD): 43214

Object ID (CCSDS): 43214

Country: PEOPLES REPUBLIC OF CHINA (PRC)

Current information (Y/N): Y

RCS size: SMALL

Orbital parameters

Period: 101.228 minutes

Inclination: 98.7457 deg

SMA: 7194.948 km

Apoapsis: 858.902 km

Periapsis: 774.723 km

RAAN: 192.3072 deg

Eccentricy: 0.0058499

Argument of periapsis: 145.8666 deg

Mean anomaly: 214.6295 deg

Mean motion: 14.22529544 rev/day

Mean motion (dot): 0.00004369 rev/day2

B* drag term: 0.0019417 1/REarth

Two-line elements (TLE)

Creation date: May 7, 2025, 3:14 a.m.

Reference frame: TEME

Reference center: EARTH

Epoch: May 6, 2025, 2:34 a.m. UTC

TLE line 0: 0 FENGYUN 1C DEB

TLE line 1: 1 43214U 99025EYN 25126.10755174 .00004369 00000-0 19417-2 0 9991

TLE line 2: 2 43214 98.7457 192.3072 0058499 145.8666 214.6295 14.22529544372651

Live tracking on map

Real-time ground track for satellite FENGYUN 1C DEB.

In-orbit conjunctions

A list of the most updated potential collisions computed for object FENGYUN 1C DEB.

Target Orbit TCA Probability of collision Miss distance Type
CZ-6A DEB LEO 2025-03-02 20:37:30 0.0004041755 275.0 (m) DEBRIS
OSCAR 17 (DOVE) SSO 2024-09-18 02:13:16 0.0003298555 335.0 (m) PAYLOAD
THOR BURNER 2 R/B SSO 2024-07-29 11:48:40 0.0001351956 233.0 (m) ROCKET BODY

Associated space launch

Chinese polar orbiting meteorological satellite

FENGYUN 1C DEB was lifted into orbit during the mission ‘Long March 4B | Feng Yun 1C’, on board a Long March 4B space rocket.

The launch took place on May 10, 1999, 1:33 a.m. from Launch Complex 7.

For more information about the launch, click the button.

Launch to space Long March 4B | Feng Yun 1C
Long March 4B | Feng Yun 1C

Agency: N/A

Status: Launch Successful

Launch date: May 10, 1999, 1:33 a.m. UTC

Rocket: Long March 4B

Launch pad: Launch Complex 7

Location: Taiyuan Satellite Launch Center, People's Republic of China

...

Latest news about this satellite

There are no fresh news available about this satellite. Check back as we update our databases every day.


Newsletter sign-up

Weekly statistics, charts and insights to help you stay on top of the space industry.